CANX-5 (40056 NORAD) Tracking and Keplerian Element Data

This shows tracking and keplerian element data for the satellite.

Feedback or suggestion? Click here.




ElementValue
Catalog40056
NameCANX-5
Epoch Orbit57086
Epoch Day35.13831104
Epoch Year2025
RAAN245.6285
Inclination98.3764
Eccentricity0.0013247
Argument of Perigee164.7346
Mean Anonmoly195.4266
Mean Motion14.79659983
Decay Rate2.585E-05
L11 40056U 14034D 25035.13831104 .00002585 00000+0 35164-3 0 9994
L22 40056 98.3764 245.6285 0013247 164.7346 195.4266 14.79659983570864



Live tracking and technical data element details for CANX-5 (NORAD 40056). CANX-5 can be tracked NOW for your location showing map with azimuth and elevation plus other details from your city location.







IsCatalogInMostPopularTable: catalog: 40056, numindb: 510
Update: records affected: 1



GetName: 40056 CANX-5

Hit Count: updated at: Thu, 22 May 2025 04:31:09 GMT